Flag for Iceland Weather past 2 weeks in Reykjavik, Iceland

Now
46 °F

Sunny.


Feels Like: 46 °F
Forecast: 50 / 60 °F
Wind: No wind

Location: Reykjavik Airport

Current Time: Aug 3, 2015 at 5:26:24 AM

Latest Report: Aug 3, 2015 at 5:00 AM


Visibility: 10 mi

Pressure: 29.98 "Hg

Humidity: 76%

Dew point: 39 °F

Location of ReykjavikLocation

Historic Weather in Reykjavik — Graph

°F

Reykjavik temperature yesterday

Maximum temperature yesterday: 57 °F (at 12:00 PM)
Minimum temperature yesterday: 46 °F (at 5:00 AM)
Average temperature yesterday: 52 °F

Past Weeks' High & Low Weather Summary

 TemperatureHumidityPressure
High61 °F (Jul 23, 2:00 PM)88% (Jul 26, 12:00 AM)30.01 "Hg (Jul 26, 12:00 AM)
Low43 °F (Jul 27, 5:00 AM)42% (Jul 30, 1:00 PM)29.65 "Hg (Jul 20, 2:00 PM)
Average51 °F66%29.87 "Hg
* Reported Jul 19 4:00 AM — Aug 3 4:00 AM, Reykjavik, Weather by CustomWeather, © 2015

Note: Actual official high and low records may vary slightly from our data, if they occured in-between our weather recording intervals... More about our weather records

Advertising

Reykjavik weather history for previous 24 hours

 ConditionsComfort  
Time TempWeatherWind HumidityBarometerVisibility
4:00 AM
Mon, Aug 3
46 °FClear.No wind82%29.98 "Hg10 mi
3:00 AM48 °FClear.2 mph76%30.01 "Hg10 mi
2:00 AM48 °FClear.1 mph82%30.01 "Hg10 mi
1:00 AM48 °FClear.2 mph76%30.01 "Hg10 mi
12:00 AM48 °FClear.1 mph76%30.01 "Hg10 mi
11:00 PM
Sun, Aug 2
50 °FClear.5 mph76%30.01 "Hg10 mi
10:00 PM52 °FSunny.6 mph77%30.01 "Hg10 mi
9:00 PM54 °FSunny.5 mph72%30.01 "Hg10 mi
8:00 PM55 °FScattered showers. Scattered clouds.5 mph63%30.01 "HgN/A
7:00 PM54 °FLight rain. Scattered clouds.9 mph63%30.01 "HgN/A
6:00 PM55 °FBroken clouds.12 mph59%29.98 "HgN/A
5:00 PM55 °FScattered clouds.13 mph55%29.98 "HgN/A
4:00 PM55 °FScattered clouds.9 mph55%29.98 "HgN/A
3:00 PM55 °FPartly sunny.10 mph55%29.98 "HgN/A
2:00 PM57 °FPartly sunny.5 mph48%29.98 "HgN/A
1:00 PM57 °FPassing clouds.8 mph44%29.98 "HgN/A
12:00 PM57 °FScattered clouds.8 mph44%29.98 "HgN/A
11:00 AM55 °FPartly sunny.6 mph47%29.95 "HgN/A
10:00 AM54 °FScattered clouds.7 mph51%29.95 "HgN/A
9:00 AM52 °FPartly sunny.10 mph58%29.95 "HgN/A
8:00 AM50 °FPartly sunny.10 mph62%29.92 "HgN/A
7:00 AM48 °FPartly sunny.12 mph66%29.89 "HgN/A
6:00 AM46 °FPartly sunny.9 mph66%29.89 "HgN/A
5:00 AM46 °FSunny.7 mph71%29.89 "Hg10 mi
Weather by CustomWeather, © 2015

See weather overviewHow to use our weather pages